STARLINK-1900 (47176 NORAD) Tracking and Keplerian Element Data
This shows tracking and keplerian element data for the satellite.
Feedback or suggestion? Click here.
Element | Value |
Catalog | 47176 |
Name | STARLINK-1900 |
Epoch Orbit | 182 |
Epoch Day | 60.91667824 |
Epoch Year | 2021 |
RAAN | 238.4643 |
Inclination | 53.0512 |
Eccentricity | 0.0002028 |
Argument of Perigee | 68.9984 |
Mean Anonmoly | 211.1251 |
Mean Motion | 15.633786 |
Decay Rate | 0.00066867 |
L1 | 1 47176U 20088BG 21060.91667824 .00066867 00000-0 71247-3 0 9992 |
L2 | 2 47176 53.0512 238.4643 0002028 68.9984 211.1251 15.63378600 1822 |
Live tracking and technical data element details for STARLINK-1900 (NORAD 47176). STARLINK-1900 can be tracked NOW for your location showing map with azimuth and elevation plus other details from your city location.
Track the satellite on the map from your city or location and see movement details for azimuth, elevation, latitude, longitude, range, height, and movement on the map or in text.
IsCatalogInMostPopularTable: catalog: 47176, numindb: 41
Update: records affected: 1
GetName: 47176 STARLINK-1900
Hit Count: updated at: Tue, 02 Mar 2021 13:39:37 GMT